Change the Weather History Date:

Wednesday, March 28, 2012

  Actual Average Record
Temperature  
Mean Temperature 43 °F 39 °F  
Max Temperature 56 °F 53 °F 71 °F (1986)
Min Temperature 30 °F 24 °F 6 °F (1972)
Degree Days  
Heating Degree Days 22 26  
Month to date heating degree days 725 812  
Since 1 July heating degree days 5610 6149  
Cooling Degree Days 0 0  
Month to date cooling degree days 0 0  
Year to date cooling degree days 0 0  
Growing Degree Days 0 (Base 50)    
Moisture  
Dew Point 21 °F    
Average Humidity 43    
Maximum Humidity 59    
Minimum Humidity 26    
Precipitation  
Precipitation 0.00 in 0.03 in 0.47 in (1993)
Month to date precipitation 0.84 0.84  
Year to date precipitation 2.73 2.29  
Snow  
Snow 0.00 in 0.20 in 4.20 in (1958)
Month to date snowfall 7.6 7.5  
Since 1 July snowfall 47.1 42.4  
Snow Depth 0.00 in    
Sea Level Pressure  
Sea Level Pressure 29.85 in    
Wind  
Wind Speed 11 mph (SSW)    
Max Wind Speed 20 mph    
Max Gust Speed 28 mph    
Visibility 10 miles    
Events      
T = Trace of Precipitation, MM = Missing Value Source: NWS Daily Summary

Daily Weather History Graph

Daily Weather History Graph

Search for Another Location

Airport or City:

Trip Planner

Search our weather history database for the weather conditions in past years. The results will help you decide how hot, cold, wet, or windy it might be!

Date:

Astronomy

Mar. 28, 2012 Rise Set
Actual Time 6:29 AM PDT 6:59 PM PDT
Civil Twilight 6:02 AM PDT 7:26 PM PDT
Nautical Twilight 5:30 AM PDT 7:58 PM PDT
Astronomical Twilight 4:58 AM PDT 8:31 PM PDT
Moon 9:51 AM PDT (3/28) 12:03 AM PDT (3/28)
Length of Visible Light 13h 24m
Length of Day
12h 30m
Waxing Crescent, 31% of the Moon is Illuminated
Mar 28
Waxing Crescent
Mar 30
First Quarter
Apr 6
Full
Apr 13
Last Quarter
Apr 21
New

Hourly Weather History & Observations

Time (PDT) Temp. Windchill Dew Point Humidity Pressure Visibility Wind Dir Wind Speed Gust Speed Precip Events Conditions
12:53 AM 37.9 °F 32.1 °F 21.0 °F 51% 29.84 in 10.0 mi South 8.1 mph - N/A   Clear
1:53 AM 42.1 °F 36.6 °F 19.0 °F 40% 29.82 in 10.0 mi SW 9.2 mph - N/A   Clear
2:53 AM 42.1 °F 38.4 °F 17.1 °F 37% 29.81 in 10.0 mi Variable 5.8 mph - N/A   Clear
3:53 AM 42.1 °F 36.1 °F 17.1 °F 37% 29.82 in 10.0 mi South 10.4 mph - N/A   Clear
4:53 AM 42.1 °F 34.2 °F 17.1 °F 37% 29.80 in 10.0 mi SSW 16.1 mph 25.3 mph N/A   Clear
5:53 AM 41.0 °F 33.5 °F 17.1 °F 38% 29.82 in 10.0 mi SSW 13.8 mph - N/A   Clear
6:53 AM 39.9 °F 32.5 °F 18.0 °F 41% 29.85 in 10.0 mi SSW 12.7 mph - N/A   Clear
7:53 AM 45.0 °F 38.5 °F 19.0 °F 36% 29.86 in 10.0 mi SSW 13.8 mph - N/A   Clear
8:53 AM 48.9 °F - 19.0 °F 31% 29.85 in 10.0 mi South 13.8 mph 20.7 mph N/A   Clear
9:53 AM 53.1 °F - 19.9 °F 27% 29.85 in 10.0 mi SSW 10.4 mph - N/A   Clear
10:53 AM 53.1 °F - 19.9 °F 27% 29.86 in 10.0 mi South 6.9 mph - N/A   Scattered Clouds
11:53 AM 54.0 °F - 21.0 °F 28% 29.85 in 10.0 mi SW 10.4 mph 18.4 mph N/A   Mostly Cloudy
12:53 PM 54.0 °F - 21.0 °F 28% 29.86 in 10.0 mi SSW 16.1 mph 21.9 mph N/A   Overcast
1:53 PM 54.0 °F - 21.9 °F 29% 29.83 in 10.0 mi SSE 15.0 mph 20.7 mph N/A   Overcast
2:53 PM 53.1 °F - 21.9 °F 30% 29.83 in 10.0 mi South 13.8 mph - N/A   Overcast
3:53 PM 54.0 °F - 21.9 °F 29% 29.82 in 10.0 mi South 8.1 mph 19.6 mph N/A   Scattered Clouds
4:53 PM 54.0 °F - 21.9 °F 29% 29.82 in 10.0 mi SSW 17.3 mph 25.3 mph N/A   Scattered Clouds
5:53 PM 53.1 °F - 23.0 °F 31% 29.83 in 10.0 mi South 10.4 mph - N/A   Overcast
6:53 PM 50.0 °F - 25.0 °F 38% 29.87 in 10.0 mi West 5.8 mph - N/A   Overcast
7:53 PM 46.9 °F - 26.1 °F 44% 29.89 in 10.0 mi WSW 6.9 mph - N/A   Overcast
8:53 PM 39.0 °F 32.8 °F 24.1 °F 55% 29.92 in 10.0 mi SSE 9.2 mph - N/A   Scattered Clouds
9:53 PM 43.0 °F 38.2 °F 26.1 °F 51% 29.91 in 10.0 mi SE 8.1 mph - N/A   Overcast
10:53 PM 41.0 °F 35.8 °F 25.0 °F 53% 29.92 in 10.0 mi SSW 8.1 mph - N/A   Overcast
11:53 PM 39.0 °F 33.4 °F 26.1 °F 60% 29.93 in 10.0 mi West 8.1 mph - N/A   Clear